{"data":{"norad_id":64182,"epoch":"2026-05-25T03:51:27.650880Z","epoch_age_seconds":54949,"freshness":"FRESH","line1":"1 64182U 25113N   26145.16073670  .00013357  00000+0  46215-3 0  9990","line2":"2 64182  53.1566  95.8897 0001216  77.9744 282.1393 15.30210925 56730","mean_motion":15.30210925,"eccentricity":0.0001216,"inclination_deg":53.1566,"raan_deg":95.8897,"arg_perigee_deg":77.9744,"mean_anomaly_deg":282.1393,"bstar":0.00046215,"rev_number":5673,"period_min":94.104673837693,"perigee_km":474.34908588758,"apogee_km":476.01581317771,"semimajor_km":6853.3194495326,"source":"CELESTRAK","updated_at":"2026-05-25T13:38:20.311839Z"}}